Howell, MI

2:13 PM EDT on July 23, 2017 (GMT -0400)
Livingston County

Weather History for KOZW - August, 2014

Change the Weather History Date:

Wednesday, August 13, 2014

  Actual Average Record
Temperature  
Mean Temperature 63 °F -  
Max Temperature 74 °F 79 °F 91 °F (2002)
Min Temperature 52 °F 58 °F 51 °F (2006)
Degree Days  
Heating Degree Days 2    
Growing Degree Days 13 (Base 50)    
Moisture  
Dew Point 51 °F    
Average Humidity 66    
Maximum Humidity 95    
Minimum Humidity 40    
Precipitation  
Precipitation 0.00 in - - ()
Sea Level Pressure  
Sea Level Pressure 29.94 in    
Wind  
Wind Speed 9 mph (WNW)    
Max Wind Speed 16 mph    
Max Gust Speed 18 mph    
Visibility 10 miles    
Events      
Averages and records for this station are not official NWS values.
T = Trace of Precipitation, MM = Missing Value Source: NWS Daily Summary

Daily Weather History Graph

Daily Weather History Graph

Search for Another Location

Airport or City:

Trip Planner

Search our weather history database for the weather conditions in past years. The results will help you decide how hot, cold, wet, or windy it might be!

Date:

Astronomy

Aug. 13, 2014 Rise Set
Actual Time 6:40 AM EDT 8:40 PM EDT
Civil Twilight 6:09 AM EDT 9:10 PM EDT
Nautical Twilight 5:32 AM EDT 9:48 PM EDT
Astronomical Twilight 4:51 AM EDT 10:29 PM EDT
Moon 10:18 PM EDT (8/13) 10:13 AM EDT (8/13)
Length of Visible Light 15h 01m
Length of Day
13h 59m
Waning Gibbous, 88% of the Moon is Illuminated
Aug 13
Waning Gibbous
Aug 17
Last Quarter
Aug 25
New
Sep 2
First Quarter
Sep 8
Full

Hourly Weather History & Observations

Time (EDT) Temp. Dew Point Humidity Pressure Visibility Wind Dir Wind Speed Gust Speed Precip Events Conditions
12:15 AM 58.8 °F 56.3 °F 91% 29.88 in 10.0 mi WNW 12.7 mph 18.4 mph N/A   Overcast
12:54 AM 58.1 °F 55.6 °F 91% 29.89 in 10.0 mi NW 11.5 mph - N/A   Overcast
1:15 AM 57.9 °F 55.4 °F 91% 29.89 in 7.0 mi WNW 11.5 mph 17.3 mph N/A   Overcast
1:35 AM 57.4 °F 55.4 °F 93% 29.89 in 4.0 mi WNW 8.1 mph - N/A   Overcast
1:54 AM 57.4 °F 55.6 °F 94% 29.89 in 10.0 mi WNW 9.2 mph - N/A   Overcast
2:15 AM 57.2 °F 55.2 °F 93% 29.89 in 10.0 mi WNW 8.1 mph - N/A   Overcast
2:35 AM 55.8 °F 54.1 °F 94% 29.89 in 10.0 mi West 6.9 mph - N/A   Scattered Clouds
2:54 AM 55.4 °F 54.0 °F 95% 29.89 in 10.0 mi West 6.9 mph - N/A   Scattered Clouds
3:15 AM 55.4 °F 53.8 °F 94% 29.89 in 10.0 mi West 6.9 mph - N/A   Scattered Clouds
3:34 AM 55.0 °F 53.6 °F 95% 29.89 in 10.0 mi West 6.9 mph - N/A   Clear
3:54 AM 54.9 °F 53.1 °F 94% 29.89 in 10.0 mi West 9.2 mph - N/A   Clear
4:15 AM 54.5 °F 52.7 °F 94% 29.89 in 10.0 mi West 8.1 mph - N/A   Clear
4:34 AM 54.5 °F 52.2 °F 92% 29.89 in 10.0 mi West 9.2 mph - N/A   Clear
4:54 AM 54.5 °F 51.6 °F 90% 29.89 in 10.0 mi WNW 8.1 mph - N/A   Clear
5:14 AM 54.1 °F 51.1 °F 89% 29.90 in 10.0 mi West 9.2 mph - N/A   Clear
5:34 AM 54.5 °F 50.9 °F 88% 29.90 in 10.0 mi WNW 9.2 mph - N/A   Clear
5:55 AM 53.8 °F 50.4 °F 88% 29.90 in 10.0 mi WNW 9.2 mph - N/A   Clear
6:14 AM 53.6 °F 50.2 °F 88% 29.91 in 10.0 mi WNW 8.1 mph - N/A   Clear
6:34 AM 52.7 °F 50.2 °F 91% 29.91 in 10.0 mi West 6.9 mph - N/A   Clear
6:55 AM 53.2 °F 50.5 °F 91% 29.92 in 10.0 mi West 9.2 mph - N/A   Clear
7:14 AM 53.6 °F 50.9 °F 91% 29.93 in 10.0 mi West 9.2 mph - N/A   Clear
7:34 AM 54.5 °F 51.3 °F 89% 29.93 in 10.0 mi West 8.1 mph - N/A   Clear
9:34 AM 62.1 °F 53.2 °F 73% 29.96 in 7.0 mi West 10.4 mph - N/A   Clear
10:14 AM 64.8 °F 53.2 °F 66% 29.96 in 7.0 mi WNW 10.4 mph - N/A   Clear
10:34 AM 65.3 °F 52.2 °F 62% 29.97 in 10.0 mi NW 9.2 mph 17.3 mph N/A   Clear
11:14 AM 67.6 °F 52.3 °F 58% 29.98 in 10.0 mi WNW 9.2 mph 18.4 mph N/A   Clear
11:35 AM 68.0 °F 51.3 °F 55% 29.98 in 10.0 mi WNW 9.2 mph - N/A   Clear
11:54 AM 68.9 °F 50.2 °F 51% 29.98 in 10.0 mi WNW 9.2 mph - N/A   Clear
12:14 PM 70.0 °F 49.5 °F 48% 29.98 in 10.0 mi NW 13.8 mph 18.4 mph N/A   Clear
12:35 PM 69.8 °F 49.1 °F 48% 29.98 in 10.0 mi NNW 11.5 mph 18.4 mph N/A   Clear
12:54 PM 70.2 °F 50.2 °F 49% 29.97 in 10.0 mi NW 9.2 mph 18.4 mph N/A   Clear
1:14 PM 70.9 °F 50.7 °F 49% 29.97 in 10.0 mi WNW 10.4 mph 17.3 mph N/A   Clear
1:35 PM 71.4 °F 51.1 °F 49% 29.97 in 10.0 mi WNW 16.1 mph - N/A   Scattered Clouds
1:54 PM 71.8 °F 50.5 °F 47% 29.97 in 10.0 mi WNW 12.7 mph 17.3 mph N/A   Scattered Clouds
2:14 PM 71.6 °F 49.8 °F 46% 29.97 in 10.0 mi NW 12.7 mph 17.3 mph N/A   Scattered Clouds
2:35 PM 72.3 °F 50.4 °F 46% 29.97 in 10.0 mi NW 8.1 mph 18.4 mph N/A   Scattered Clouds
2:54 PM 73.0 °F 50.4 °F 45% 29.96 in 10.0 mi NW 6.9 mph 10.4 mph N/A   Scattered Clouds
3:15 PM 73.6 °F 49.1 °F 42% 29.96 in 10.0 mi WNW 10.4 mph 16.1 mph N/A   Mostly Cloudy
3:35 PM 72.7 °F 50.4 °F 45% 29.96 in 10.0 mi West 9.2 mph - N/A   Mostly Cloudy
3:54 PM 71.6 °F 50.0 °F 46% 29.96 in 10.0 mi WNW 8.1 mph - N/A   Mostly Cloudy
4:15 PM 73.9 °F 49.8 °F 43% 29.96 in 10.0 mi WNW 13.8 mph 17.3 mph N/A   Overcast
4:35 PM 74.8 °F 50.4 °F 42% 29.96 in 10.0 mi West 15.0 mph 18.4 mph N/A   Mostly Cloudy
4:54 PM 74.3 °F 48.6 °F 40% 29.96 in 10.0 mi West 12.7 mph 17.3 mph N/A   Mostly Cloudy
5:15 PM 74.3 °F 48.9 °F 41% 29.96 in 10.0 mi NW 11.5 mph 18.4 mph N/A   Mostly Cloudy
5:35 PM 73.0 °F 48.2 °F 41% 29.96 in 10.0 mi NNW 9.2 mph - N/A   Scattered Clouds
5:54 PM 72.5 °F 49.6 °F 44% 29.96 in 10.0 mi NNW 8.1 mph - N/A   Clear
6:15 PM 72.7 °F 49.1 °F 43% 29.96 in 10.0 mi NNW 5.8 mph - N/A   Clear
6:35 PM 72.5 °F 48.0 °F 42% 29.96 in 10.0 mi NW 9.2 mph - N/A   Clear
6:54 PM 72.1 °F 48.2 °F 43% 29.96 in 10.0 mi NNW 9.2 mph - N/A   Scattered Clouds
7:15 PM 71.6 °F 49.1 °F 45% 29.96 in 10.0 mi NW 5.8 mph - N/A   Scattered Clouds
7:35 PM 70.9 °F 49.8 °F 47% 29.96 in 10.0 mi NW 5.8 mph - N/A   Scattered Clouds
7:54 PM 70.0 °F 50.4 °F 50% 29.96 in 10.0 mi NW 3.5 mph - N/A   Clear
8:15 PM 68.4 °F 51.8 °F 55% 29.96 in 10.0 mi Calm Calm - N/A   Clear
8:54 PM 66.6 °F 51.3 °F 58% 29.97 in 10.0 mi NW 3.5 mph - N/A   Mostly Cloudy
9:34 PM 63.5 °F 52.0 °F 66% 29.98 in 10.0 mi Calm Calm - N/A   Scattered Clouds
9:55 PM 63.1 °F 51.6 °F 66% 29.98 in 10.0 mi NW 4.6 mph - N/A   Mostly Cloudy